This demonstration page uses our WeatherBlox Daily Observations layout. Learn more.

Left ArrowRight Arrow

Hourly Observations for January 18, 2017

Temp ( °F °C ) Dew Point ( °F °C ) Humidity (%) Winds ( mph kmh ) Pressure ( in mb ) Visibility ( mi km ) Precip ( " mm )
12:14 am 00:14 Cloudy with Mist and Fog 46 8 46 8 100 100 N N/A 29.91 1013 3 4 N/A
12:34 am 00:34 Cloudy with Mist and Fog 46 8 46 8 100 100 N N/A 29.91 1013 3 4 N/A
12:54 am 00:54 Cloudy with Mist and Fog 46 8 46 8 100 100 NNE 3 6 29.91 1013 3 4 N/A
1:14 am 01:14 Cloudy with Mist and Fog 46 8 46 8 100 100 N 3 6 29.91 1013 1 2 N/A
1:34 am 01:34 Cloudy with Mist and Fog 46 8 46 8 100 100 N N/A 29.91 1013 1 1 N/A
1:54 am 01:54 Cloudy with Fog 46 8 46 8 100 100 N N/A 29.91 1013 1 1 N/A
2:14 am 02:14 Cloudy with Fog 46 8 46 8 100 100 NNE 3 6 29.91 1013 1 1 N/A
2:34 am 02:34 Cloudy with Fog 45 7 45 7 100 100 NNE 5 7 29.91 1013 1 1 N/A
2:54 am 02:54 Cloudy with Fog 45 7 45 7 100 100 N 6 9 29.94 1014 1 1 N/A
3:15 am 03:15 Cloudy with Mist and Fog 45 7 45 7 100 100 NNE 5 7 29.94 1014 1 1 N/A
3:34 am 03:34 Cloudy with Mist and Fog 45 7 45 7 100 100 N 6 9 29.94 1014 1 1 N/A
3:54 am 03:54 Cloudy with Mist and Fog 45 7 45 7 100 100 NNE 3 6 29.94 1014 1 2 N/A
4:14 am 04:14 Cloudy with Mist and Fog 45 7 45 7 100 100 N 3 6 29.94 1014 1 1 N/A
4:34 am 04:34 Cloudy with Mist and Fog 45 7 45 7 100 100 N 9 15 29.94 1014 2 2 N/A
4:54 am 04:54 Cloudy with Mist and Fog 45 7 45 7 100 100 N 8 13 29.94 1014 1 2 N/A
5:14 am 05:14 Cloudy with Mist and Fog 45 7 45 7 100 100 N 6 9 29.94 1014 2 3 N/A
5:34 am 05:34 Cloudy with Mist and Fog 45 7 45 7 100 100 NNW 7 11 29.94 1014 4 6 N/A
5:54 am 05:54 Cloudy with Mist and Fog 45 7 45 7 100 100 N 7 11 29.97 1015 5 8 N/A
6:14 am 06:14 Partly Cloudy with Mist and Fog 45 7 45 7 100 100 N N/A 29.97 1015 5 8 N/A
6:34 am 06:34 Partly Cloudy with Mist and Fog 45 7 45 7 100 100 N 7 11 29.94 1014 5 8 N/A
6:54 am 06:54 Clear 45 7 45 7 100 100 N N/A 29.97 1015 7 11 N/A
7:14 am 07:14 Cloudy with Mist and Fog 43 6 43 6 100 100 N N/A 29.97 1015 1 1 N/A
7:34 am 07:34 Cloudy with Mist and Fog 43 6 43 6 100 100 NNW 8 13 29.97 1015 3 5 N/A
8:15 am 08:15 Cloudy 52 11 48 9 88 88 NW 18 30 29.94 1014 10 16 N/A
8:34 am 08:34 Cloudy 52 11 48 9 88 88 NW 12 19 29.97 1015 10 16 N/A
8:54 am 08:54 Cloudy 54 12 46 8 77 77 NW 8 13 29.97 1015 10 16 N/A
9:14 am 09:14 Cloudy 52 11 46 8 82 82 N 3 6 29.97 1015 10 16 N/A
9:34 am 09:34 Cloudy 54 12 48 9 82 82 WNW 15 24 29.97 1015 10 16 N/A
9:56 am 09:56 Partly Cloudy 54 12 48 9 82 82 WNW 8 13 29.97 1015 10 16 N/A
10:14 am 10:14 Mostly Cloudy 55 13 48 9 77 77 NW 14 22 30.00 1016 10 16 N/A
10:34 am 10:34 Partly Cloudy 55 13 46 8 72 72 NW 14 22 29.97 1015 10 16 N/A
10:54 am 10:54 Mostly Cloudy 57 14 46 8 67 67 WNW 20 31 29.97 1015 10 16 N/A
11:14 am 11:14 Cloudy 57 14 46 8 67 67 WNW 17 28 29.97 1015 10 16 N/A
11:36 am 11:36 Cloudy 55 13 45 7 67 67 WNW 13 20 29.97 1015 10 16 N/A
11:54 am 11:54 Cloudy 55 13 45 7 67 67 WNW 20 31 29.97 1015 10 16 N/A
12:14 pm 12:14 Cloudy 55 13 45 7 67 67 NW 18 30 29.97 1015 10 16 N/A
12:34 pm 12:34 Cloudy 55 13 43 6 63 63 WNW 17 28 29.97 1015 10 16 N/A
12:54 pm 12:54 Cloudy 57 14 45 7 63 63 NW 23 37 29.97 1015 10 16 N/A
1:14 pm 13:14 Cloudy 57 14 43 6 59 59 NW 18 30 29.97 1015 10 16 N/A
1:34 pm 13:34 Cloudy 55 13 43 6 63 63 NW 16 26 29.97 1015 10 16 N/A
1:55 pm 13:55 Cloudy 55 13 43 6 63 63 NW 20 31 29.97 1015 10 16 N/A
2:14 pm 14:14 Cloudy 55 13 41 5 59 59 NW 18 30 29.97 1015 10 16 N/A
2:34 pm 14:34 Cloudy 55 13 43 6 63 63 NW 15 24 29.97 1015 10 16 N/A
2:54 pm 14:54 Cloudy 55 13 43 6 63 63 NW 16 26 30.00 1016 10 16 N/A
3:14 pm 15:14 Cloudy 55 13 43 6 63 63 NW 14 22 30.00 1016 10 16 N/A
3:34 pm 15:34 Cloudy 55 13 39 4 55 55 NW 20 31 30.00 1016 10 16 N/A
4:14 pm 16:14 Mostly Cloudy 54 12 39 4 58 58 WNW 14 22 30.00 1016 10 16 N/A
4:34 pm 16:34 Mostly Cloudy 54 12 39 4 58 58 NW 15 24 30.00 1016 10 16 N/A
4:54 pm 16:54 Partly Cloudy 52 11 39 4 62 62 NW 14 22 30.03 1017 10 16 N/A
5:14 pm 17:14 Sunny 52 11 39 4 62 62 NW 16 26 30.03 1017 10 16 N/A
5:34 pm 17:34 Partly Cloudy 52 11 39 4 62 62 N 12 19 30.06 1018 10 16 N/A
5:54 pm 17:54 Partly Cloudy 48 9 39 4 71 71 NNW 10 17 30.09 1019 10 16 N/A
6:14 pm 18:14 Mostly Cloudy 48 9 39 4 71 71 NNW 12 19 30.09 1019 10 16 N/A
6:34 pm 18:34 Partly Cloudy 48 9 37 3 66 66 N 9 15 30.09 1019 10 16 N/A
6:54 pm 18:54 Partly Cloudy 46 8 37 3 71 71 N 6 9 30.12 1020 10 16 N/A
7:14 pm 19:14 Clear 46 8 37 3 71 71 N 7 11 30.12 1020 10 16 N/A
7:34 pm 19:34 Mostly Cloudy 46 8 37 3 71 71 NNW 5 7 30.12 1020 10 16 N/A
7:54 pm 19:54 Partly Cloudy 45 7 37 3 76 76 N 6 9 30.12 1020 10 16 N/A
8:14 pm 20:14 Mostly Cloudy 46 8 37 3 71 71 N 5 7 30.12 1020 10 16 N/A
8:54 pm 20:54 Cloudy 45 7 37 3 76 76 N N/A 30.12 1020 10 16 N/A
9:14 pm 21:14 Mostly Cloudy 45 7 37 3 76 76 undefined N/A 30.12 1020 10 16 N/A
9:34 pm 21:34 Mostly Cloudy 45 7 37 3 76 76 undefined N/A 30.12 1020 10 16 N/A
9:54 pm 21:54 Cloudy 45 7 39 4 81 81 undefined N/A 30.12 1020 10 16 N/A
10:14 pm 22:14 Cloudy 45 7 39 4 81 81 N N/A 30.12 1020 10 16 N/A
10:34 pm 22:34 Cloudy 45 7 39 4 81 81 NW 3 6 30.12 1020 10 16 N/A
10:54 pm 22:54 Cloudy 45 7 39 4 81 81 W 3 6 30.12 1020 10 16 N/A
11:34 pm 23:34 Partly Cloudy 43 6 37 3 81 81 N N/A 30.12 1020 10 16 N/A
11:54 pm 23:54 Partly Cloudy 43 6 37 3 81 81 undefined N/A 30.12 1020 10 16 N/A

Powered by AerisWeather